Weather History for KDXX - October, 2011

Change the Weather History Date:

Friday, October 7, 2011

  Actual Average (KAQP) Record (KAQP)
Temperature  
Mean Temperature 74 °F -  
Max Temperature 82 °F 61 °F 86 °F (2003)
Min Temperature 66 °F 37 °F 24 °F (2001)
Cooling Degree Days 9    
Growing Degree Days 24 (Base 50)    
Moisture  
Dew Point 51 °F    
Average Humidity 47    
Maximum Humidity 100    
Minimum Humidity 28    
Precipitation  
Precipitation 0.59 in - - ()
Sea Level Pressure  
Sea Level Pressure 29.74 in    
Wind  
Wind Speed 22 mph (South)    
Max Wind Speed 34 mph    
Max Gust Speed 43 mph    
Visibility 10 miles    
Events Rain , Thunderstorm    
Averages and records for this station are not official NWS values.
T = Trace of Precipitation, MM = Missing Value Source: NWS Daily Summary

Daily Weather History Graph

Daily Weather History Graph

Search for Another Location

Airport or City:

Trip Planner

Search our weather history database for the weather conditions in past years. The results will help you decide how hot, cold, wet, or windy it might be!

Date:

Astronomy

Oct. 07, 2011 Rise Set
Actual Time 7:29 AM CDT 6:54 PM CDT
Civil Twilight 7:00 AM CDT 7:23 PM CDT
Nautical Twilight 6:26 AM CDT 7:57 PM CDT
Astronomical Twilight 5:52 AM CDT 8:31 PM CDT
Moon 4:46 PM CDT (10/7) 3:09 AM CDT (10/7)
Length of Visible Light 12h 23m
Length of Day
11h 24m
Waxing Gibbous, 83% of the Moon is Illuminated
Oct 7
Waxing Gibbous
Oct 11
Full
Oct 19
Last Quarter
Oct 26
New
Nov 2
First Quarter

Hourly Weather History & Observations

Time (CDT) Temp. Heat Index Dew Point Humidity Pressure Visibility Wind Dir Wind Speed Gust Speed Precip Events Conditions
12:14 AM 69.8 °F - 35.6 °F 28% 29.79 in 10.0 mi SSE 20.7 mph 27.6 mph N/A   Clear
12:34 AM 69.8 °F - 35.6 °F 28% 29.79 in 10.0 mi SSE 19.6 mph 28.8 mph N/A   Clear
12:53 AM 69.8 °F - 37.4 °F 31% 29.78 in 10.0 mi SSE 19.6 mph 25.3 mph N/A   Clear
1:14 AM 69.8 °F - 37.4 °F 31% 29.79 in 10.0 mi SSE 20.7 mph 24.2 mph N/A   Clear
1:33 AM 69.8 °F - 37.4 °F 31% 29.79 in 10.0 mi SSE 20.7 mph 27.6 mph N/A   Clear
1:54 AM 69.8 °F - 37.4 °F 31% 29.79 in 10.0 mi SSE 20.7 mph 25.3 mph N/A   Clear
2:14 AM 69.8 °F - 37.4 °F 31% 29.79 in 10.0 mi SSE 20.7 mph 25.3 mph N/A   Clear
2:33 AM 69.8 °F - 39.2 °F 33% 29.79 in 10.0 mi SSE 19.6 mph 23.0 mph N/A   Clear
2:54 AM 69.8 °F - 41.0 °F 35% 29.79 in 10.0 mi South 18.4 mph 24.2 mph N/A   Clear
3:14 AM 69.8 °F - 41.0 °F 35% 29.79 in 10.0 mi SSE 15.0 mph 24.2 mph N/A   Clear
3:33 AM 69.8 °F - 42.8 °F 38% 29.78 in 10.0 mi SSE 18.4 mph 24.2 mph N/A   Clear
3:54 AM 69.8 °F - 42.8 °F 38% 29.78 in 10.0 mi SSE 19.6 mph 24.2 mph N/A   Clear
4:14 AM 71.6 °F - 42.8 °F 35% 29.77 in 10.0 mi South 19.6 mph 31.1 mph N/A   Clear
4:33 AM 71.6 °F - 42.8 °F 35% 29.77 in 10.0 mi South 19.6 mph 26.5 mph N/A   Clear
4:54 AM 71.6 °F - 44.6 °F 38% 29.77 in 10.0 mi South 19.6 mph 25.3 mph N/A   Clear
5:14 AM 69.8 °F - 44.6 °F 40% 29.77 in 10.0 mi South 19.6 mph 24.2 mph N/A   Clear
5:33 AM 69.8 °F - 44.6 °F 40% 29.76 in 10.0 mi South 18.4 mph 24.2 mph N/A   Scattered Clouds
5:54 AM 68.0 °F - 50.0 °F 52% 29.76 in 10.0 mi South 17.3 mph 21.9 mph N/A Rain Light Rain
6:13 AM 69.8 °F - 48.2 °F 46% 29.76 in 10.0 mi South 17.3 mph 24.2 mph N/A   Scattered Clouds
6:34 AM 69.8 °F - 48.2 °F 46% 29.75 in 10.0 mi South 18.4 mph 24.2 mph N/A   Mostly Cloudy
6:54 AM 68.0 °F - 48.2 °F 49% 29.74 in 10.0 mi SSE 16.1 mph 19.6 mph N/A   Mostly Cloudy
7:14 AM 66.2 °F - 48.2 °F 52% 29.75 in 10.0 mi SSE 18.4 mph 24.2 mph N/A   Scattered Clouds
7:34 AM 66.2 °F - 48.2 °F 52% 29.74 in 10.0 mi SSE 18.4 mph 21.9 mph N/A   Clear
7:53 AM 66.2 °F - 50.0 °F 56% 29.73 in 10.0 mi SSE 17.3 mph 25.3 mph N/A   Clear
8:14 AM 68.0 °F - 50.0 °F 52% 29.71 in 10.0 mi South 23.0 mph 29.9 mph N/A   Clear
8:34 AM 69.8 °F - 51.8 °F 53% 29.72 in 10.0 mi South 20.7 mph 31.1 mph N/A   Clear
8:53 AM 68.0 °F - 53.6 °F 60% 29.73 in 10.0 mi South 21.9 mph 31.1 mph N/A   Scattered Clouds
9:14 AM 69.8 °F - 51.8 °F 53% 29.73 in 7.0 mi South 26.5 mph 33.4 mph N/A   Clear
9:34 AM 69.8 °F - 51.8 °F 53% 29.73 in 10.0 mi South 25.3 mph 34.5 mph N/A   Clear
9:53 AM 69.8 °F - 51.8 °F 53% 29.73 in 7.0 mi South 20.7 mph 29.9 mph N/A   Clear
10:14 AM 71.6 °F - 50.0 °F 46% 29.73 in 10.0 mi South 23.0 mph 31.1 mph N/A   Clear
10:34 AM 73.4 °F - 50.0 °F 44% 29.72 in 7.0 mi South 28.8 mph 36.8 mph N/A   Clear
10:53 AM 75.2 °F - 50.0 °F 41% 29.72 in 10.0 mi South 25.3 mph 39.1 mph N/A   Clear
11:14 AM 75.2 °F - 50.0 °F 41% 29.71 in 10.0 mi SSW 31.1 mph 42.6 mph N/A   Scattered Clouds
11:34 AM 75.2 °F - 51.8 °F 44% 29.72 in 10.0 mi South 33.4 mph 40.3 mph N/A   Scattered Clouds
11:53 AM 77.0 °F - 51.8 °F 41% 29.72 in 7.0 mi South 34.5 mph 40.3 mph N/A   Clear
12:34 PM 78.8 °F - 51.8 °F 39% 29.71 in 10.0 mi South 26.5 mph 34.5 mph N/A   Scattered Clouds
12:53 PM 78.8 °F - 53.6 °F 42% 29.71 in 10.0 mi SSW 29.9 mph 39.1 mph N/A   Scattered Clouds
1:14 PM 78.8 °F - 53.6 °F 42% 29.70 in 10.0 mi SSW 28.8 mph 42.6 mph N/A   Mostly Cloudy
1:34 PM 78.8 °F - 53.6 °F 42% 29.70 in 10.0 mi SSW 29.9 mph 41.4 mph N/A   Scattered Clouds
2:14 PM 80.6 °F 80.3 °F 53.6 °F 39% 29.70 in 10.0 mi SSW 26.5 mph 36.8 mph N/A   Scattered Clouds
2:33 PM 80.6 °F - 51.8 °F 37% 29.69 in 10.0 mi SSW 29.9 mph 42.6 mph N/A   Scattered Clouds
3:14 PM 82.4 °F 81.4 °F 53.6 °F 37% 29.69 in 10.0 mi SSW 27.6 mph 34.5 mph N/A   Mostly Cloudy
3:33 PM 82.4 °F 81.4 °F 53.6 °F 37% 29.68 in 10.0 mi South 29.9 mph 36.8 mph N/A   Mostly Cloudy
4:14 PM 82.4 °F 81.7 °F 55.4 °F 39% 29.68 in 10.0 mi South 34.5 mph 39.1 mph N/A   Scattered Clouds
4:33 PM 80.6 °F 80.5 °F 55.4 °F 42% 29.67 in 10.0 mi South 31.1 mph 38.0 mph N/A   Scattered Clouds
4:54 PM 80.6 °F 80.5 °F 55.4 °F 42% 29.68 in 10.0 mi SSW 27.6 mph 35.7 mph N/A   Clear
5:14 PM 82.4 °F 81.7 °F 55.4 °F 39% 29.67 in 10.0 mi SSW 28.8 mph 38.0 mph N/A   Scattered Clouds
5:33 PM 80.6 °F 80.8 °F 57.2 °F 45% 29.68 in 10.0 mi SSW 25.3 mph 35.7 mph N/A   Scattered Clouds
5:54 PM 80.6 °F 80.8 °F 57.2 °F 45% 29.69 in 10.0 mi South 24.2 mph 32.2 mph N/A   Scattered Clouds
6:14 PM 80.6 °F 80.8 °F 57.2 °F 45% 29.69 in 10.0 mi SSW 23.0 mph 32.2 mph N/A   Scattered Clouds
6:34 PM 80.6 °F 80.8 °F 57.2 °F 45% 29.70 in 10.0 mi SSW 20.7 mph 34.5 mph N/A   Scattered Clouds
6:54 PM 78.8 °F - 59.0 °F 51% 29.70 in 10.0 mi South 25.3 mph 31.1 mph N/A   Scattered Clouds
7:14 PM 78.8 °F - 60.8 °F 54% 29.71 in 10.0 mi South 21.9 mph 29.9 mph N/A   Scattered Clouds
7:33 PM 77.0 °F - 64.4 °F 65% 29.72 in 7.0 mi South 25.3 mph 36.8 mph N/A Rain Rain
7:54 PM 73.4 °F - 66.2 °F 78% 29.71 in 10.0 mi SSW 15.0 mph - N/A Rain Light Rain
8:14 PM 71.6 °F - 66.2 °F 83% 29.73 in 10.0 mi SSW 9.2 mph - N/A Rain Rain
8:34 PM 69.8 °F - 68.0 °F 94% 29.75 in 7.0 mi West 16.1 mph - 0.07 in Rain Heavy Rain
8:55 PM 66.2 °F - 66.2 °F 100% 29.78 in 7.0 mi WSW 15.0 mph 29.9 mph 0.33 in Rain , Thunderstorm Heavy Thunderstorms and Rain
9:14 PM 66.2 °F - 66.2 °F 100% 29.78 in 7.0 mi SW 18.4 mph 29.9 mph 0.11 in Rain Heavy Rain
9:33 PM 66.2 °F - 66.2 °F 100% 29.79 in 7.0 mi WSW 19.6 mph 29.9 mph 0.26 in Rain , Thunderstorm Heavy Thunderstorms and Rain
9:54 PM 64.4 °F - 64.4 °F 100% 29.81 in 10.0 mi WSW 15.0 mph 19.6 mph 0.29 in Rain Light Rain
9:55 PM 64.4 °F - 64.4 °F 100% 29.81 in 7.0 mi SW 16.1 mph 19.6 mph 0.33 in Rain Light Rain
10:13 PM 64.4 °F - 62.6 °F 94% 29.77 in 10.0 mi SW 11.5 mph - 0.05 in Rain Rain
10:34 PM 60.8 °F - 57.2 °F 88% 29.79 in 10.0 mi WSW 9.2 mph - 0.19 in Rain Light Rain
10:54 PM 60.8 °F - 57.2 °F 88% 29.80 in 10.0 mi SW 6.9 mph - 0.19 in   Overcast
10:55 PM 60.8 °F - 57.2 °F 88% 29.80 in 10.0 mi SW 6.9 mph - 0.19 in   Overcast
11:13 PM 60.8 °F - 57.2 °F 88% 29.81 in 10.0 mi SW 9.2 mph - N/A Rain Light Rain
11:34 PM 62.6 °F - 57.2 °F 82% 29.80 in 10.0 mi SW 5.8 mph - N/A   Overcast
11:54 PM 60.8 °F - 57.2 °F 88% 29.78 in 10.0 mi SW 6.9 mph - N/A   Overcast